Погода в Бандоли

Франция     43°08′11″N   5°45′09″E
темп.,
°C
ветер,
м/с
пор.,
м/с
влажн.,
%
обл.,
%
осадки,
мм/ч
давл.,
гПа
погр.,
м
14 мая, пт
пт1423:00+11з4890100 0.0 1010591
02:00+12зсз3783100 0.1 1009543
05:00+10зсз358197 0.0 1009241
08:00+12зсз377179 0.0 1008564
11:00+16зсз7850100 0.0 10081498
14:00+18сз810376 0.0 10082123
17:00+18сз1013343 0.0 10082194
20:00+15сз9154468 0.0 10091591
15 мая, сб
сб1523:00+14сз71441100 0.0 10111194
02:00+13сз5124933 0.0 1012668
05:00+10зсз3566100 0.0 1012200
08:00+12зсз2557100 0.0 1013244
11:00+14зсз4853100 0.0 1013687
14:00+16зюз3549100 0.0 1012796
17:00+15з2360100 0.0 1012405
20:00+14сз2364100 0.0 1012141
16 мая, вс
вс1623:00+13ссз2375100 0.0 1012138
02:00+12сз2381100 0.0 101190
05:00+11ссз228799 0.0 101053
08:00+14сз257055 0.0 1010226
11:00+19сз584669 0.0 1011988
14:00+21сз5742100 0.0 10111388
17:00+20сз684171 0.0 10101268
20:00+17сз5115299 0.0 1011945
17 мая, пн
пн1723:00+14зсз41167100 0.0 1013801
02:00+14зсз41165100 0.1 1012935
05:00+13зсз61270100 0.0 1012875
08:00+13зсз51366100 0.0 1013962
11:00+14зсз81445100 0.0 10141132
14:00+18зсз91435100 0.0 10141664
17:00+19зсз91530100 0.0 10132252
20:00+17зсз9134012 0.0 10141781
18 мая, вт
вт1823:00+13сз7135166 0.0 10161233
02:00+12сз715592 0.0 10171152
05:00+11сз81657100 0.0 10191237
08:00+12сз9165617 0.0 1019982
11:00+16сз91442100 0.0 1018978
14:00+19сз91230100 0.0 10191088
17:00+19зсз8102999 0.0 10181206
20:00+16з694723 0.0 1019868